Weather History for Campo, CA

Change the Weather History Date:

Wednesday, April 24, 2013

  Actual Average Record
Temperature  
Mean Temperature 54 °F 57 °F  
Max Temperature 68 °F 75 °F 89 °F (1996)
Min Temperature 40 °F 39 °F 27 °F (1963)
Degree Days  
Heating Degree Days 11 8  
Month to date heating degree days 263 253  
Since 1 July heating degree days 2779 2721  
Cooling Degree Days 0 0  
Month to date cooling degree days 0 0  
Year to date cooling degree days 0 0  
Growing Degree Days 4 (Base 50)    
Moisture  
Dew Point 43 °F    
Average Humidity 64    
Maximum Humidity 83    
Minimum Humidity 45    
Precipitation  
Precipitation 0.00 in 0.03 in 0.63 in (1990)
Month to date precipitation 0.01 0.83  
Year to date precipitation 4.45 9.73  
Since 1 July precipitation 8.92 15.31  
Snow  
Snow 0.00 in - - ()
Month to date snowfall 0.0  
Year to date snowfall 0.0  
Since 1 July snowfall 0.0  
Snow Depth 0.00 in    
Sea Level Pressure  
Sea Level Pressure 29.84 in    
Wind  
Wind Speed 9 mph (SW)    
Max Wind Speed 24 mph    
Max Gust Speed 30 mph    
T = Trace of Precipitation, MM = Missing Value Source: NWS Daily Summary

Daily Weather History Graph

Daily Weather History Graph

Search for Another Location

Airport:

Trip Planner

Search our weather history database for the weather conditions in past years. The results will help you decide how hot, cold, wet, or windy it might be!

Date:

Astronomy

Apr. 24, 2013 Rise Set
Actual Time 6:05 AM PDT 7:22 PM PDT
Civil Twilight 5:40 AM PDT 7:48 PM PDT
Nautical Twilight 5:09 AM PDT 8:19 PM PDT
Astronomical Twilight 4:37 AM PDT 8:51 PM PDT
Moon 6:32 PM PDT (4/24) 5:08 AM PDT (4/24)
Length of Visible Light 14h 08m
Length of Day
13h 16m
Waxing Gibbous, 98% of the Moon is Illuminated
Apr 24
Waxing Gibbous
Apr 25
Full
May 2
Last Quarter
May 9
New
May 17
First Quarter

Hourly Weather History & Observations

Time (PDT) Temp. Windchill Dew Point Humidity Pressure Visibility Wind Dir Wind Speed Gust Speed Precip Events Conditions
12:52 AM 46.9 °F - 37.9 °F 71% 29.84 in - ENE 3.5 mph - N/A   Unknown
1:52 AM 44.1 °F - 37.0 °F 76% 29.83 in - Calm Calm - N/A   Unknown
2:52 AM 42.1 °F - 36.0 °F 79% 29.83 in - Calm Calm - N/A   Unknown
3:52 AM 41.0 °F 37.1 °F 34.0 °F 76% 29.82 in - ENE 5.8 mph - N/A   Unknown
4:52 AM 44.1 °F 42.5 °F 35.1 °F 71% 29.79 in - NNE 3.5 mph - N/A   Unknown
5:52 AM 44.1 °F 41.5 °F 35.1 °F 71% 29.81 in - NE 4.6 mph - N/A   Unknown
6:52 AM 45.0 °F - 36.0 °F 71% 29.84 in - Calm Calm - N/A   Unknown
7:52 AM 50.0 °F - 43.0 °F 77% 29.85 in - Calm Calm - N/A   Unknown
8:52 AM 57.9 °F - 44.1 °F 60% 29.84 in - SSW 9.2 mph - N/A   Unknown
9:52 AM 57.0 °F - 46.0 °F 67% 29.85 in - SW 4.6 mph - N/A   Unknown
10:52 AM 62.1 °F - 46.9 °F 58% 29.84 in - SW 12.7 mph - N/A   Unknown
11:52 AM 68.0 °F - 46.9 °F 47% 29.83 in - SW 11.5 mph - N/A   Unknown
12:52 PM 64.9 °F - 48.0 °F 54% 29.83 in - SW 16.1 mph - N/A   Unknown
1:52 PM 64.0 °F - 48.0 °F 56% 29.82 in - SSW 21.9 mph 27.6 mph N/A   Unknown
2:52 PM 62.1 °F - 48.0 °F 60% 29.83 in - SSW 19.6 mph 25.3 mph N/A   Unknown
3:52 PM 55.9 °F - 48.0 °F 75% 29.85 in - SW 19.6 mph 25.3 mph N/A   Unknown
4:52 PM 54.0 °F - 48.0 °F 80% 29.85 in - WSW 11.5 mph - N/A   Unknown
5:52 PM 53.1 °F - 46.9 °F 80% 29.85 in - WSW 9.2 mph - N/A   Unknown
6:52 PM 52.0 °F - 46.9 °F 83% 29.86 in - SW 8.1 mph - N/A   Unknown
7:52 PM 52.0 °F - 46.9 °F 83% 29.86 in - WSW 8.1 mph - N/A   Unknown
8:52 PM 51.1 °F - 46.9 °F 86% 29.88 in - West 6.9 mph - N/A   Unknown
9:52 PM 51.1 °F - 46.0 °F 83% 29.88 in - WNW 5.8 mph - N/A   Unknown
10:52 PM 51.1 °F - 45.0 °F 80% 29.87 in - West 4.6 mph - N/A   Unknown
11:52 PM 50.0 °F - 45.0 °F 83% 29.87 in - SSW 12.7 mph - N/A   Unknown